Regional Weather Roundup
Issued by NWS Jackson, KY

Home | Current Version | Previous Version | Graphics & Text | Print | Product List | Glossary On
Versions: 1 2 3 4 5 6 7 8 9 10 11 12 13 14 15 16 17 18 19 20 21 22 23 24 25 26 27
000
ASUS43 KJKL 190710
RWRJKL

EAST KENTUCKY HOURLY WEATHER ROUNDUP
NATIONAL WEATHER SERVICE JACKSON KY
200 AM EST MON FEB 19 2018

NOTE: "FAIR" INDICATES FEW OR NO CLOUDS BELOW 12,000 FEET WITH
NO SIGNIFICANT WEATHER AND/OR OBSTRUCTIONS TO VISIBILITY.

* THESE REPORTS ARE NOT UNDER NWS QUALITY CONTROL AND MAY NOT
  REPORT WEATHER SUCH AS PRECIPITATION AND FOG.

KYZ079-080-083-085-087-088-110-112-115-119-120-190800
...EASTERN KENTUCKY...

CITY           SKY/WX    TMP DP  RH WIND       PRES   REMARKS
JACKSON        LGT RAIN  49  42  77 SW3       30.17R
LONDON         HVY RAIN  56  48  74 S8        30.18R
SOMERSET*      CLOUDY    55  50  82 S9        30.17F
WILLIAMSBURG*  PTSUNNY   55  48  76 SE7       30.18S
MIDDLESBORO*   CLOUDY    49  46  87 CALM      30.24S
HARLAN APT*    CLOUDY    52  45  76 CALM      30.25R
PIKE CO APT*   CLOUDY    54  38  56 SE6       30.18R
BIG SANDY APT* CLOUDY    53  40  60 S8        30.17R
MOREHEAD APT*  CLOUDY    45  37  76 S9        30.16S
ASHLAND*       LGT RAIN  39  36  89 E5        30.16F
$$

KYZ035-036-041-042-044-050-067-078-099-190800
...CENTRAL KENTUCKY...

CITY           SKY/WX    TMP DP  RH WIND       PRES   REMARKS
MT STERLING*   CLOUDY    50  41  71 SW10      30.15S
FLEMING/MASON*   N/A     46  35  66 S9        30.13S
DANVILLE*      CLOUDY    52  41  66 S7        30.13F
LEXINGTON      CLOUDY    53  40  61 S12       30.11F
FRANKFORT      CLOUDY    51  37  58 S7        30.09F
LOUISVILLE     CLOUDY    50  37  61 SE6       30.08S
LEBANON*       CLOUDY    55  46  71 S13       30.11S
GLASGOW*       CLOUDY    58  52  80 SW9G16    30.13R
BOWLING GREEN  CLOUDY    58  51  78 S16       30.12R
$$

KYZ091>093-OHZ055-061-077-WVZ005-015-034-035-042-190800
...SOUTHERN OHIO/WEST VIRGINIA...

CITY           SKY/WX    TMP DP  RH WIND       PRES   REMARKS
COVINGTON      MOCLDY    41  35  79 S10       30.06F
COLUMBUS       MOCLDY    37  30  75 SE7       30.11F WCI  32
DAYTON         MOCLDY    36  32  85 SE9       30.05F WCI  29
WILMINGTON       N/A     41  33  73 S8        30.07F
HUNTINGTON     CLOUDY    39  36  89 S5        30.16S
CHARLESTON     CLOUDY    51  33  50 CALM      30.17F
BECKLEY        LGT RAIN  45  30  55 S14G22    30.25S
BLUEFIELD      LGT RAIN  45  30  55 S12G20    30.28S
LOGAN CO APT*  LGT RAIN  52  36  54 S12G18    30.19S
$$

VAZ002-007-008-TNZ017-027-036-066-071-190800
...SOUTHWEST VIRGINIA/EAST TENNESSEE...

CITY           SKY/WX    TMP DP  RH WIND       PRES   REMARKS
WISE*          CLOUDY    50  43  76 S10G18    30.25R
JONESVILLE*    CLOUDY    46  45  93 CALM      30.29R
ABINGDON*      CLOUDY    55  41  60 NE5       30.27S
BRISTOL        LGT RAIN  56  44  64 S9        30.25S
MORRISTOWN*    CLOUDY    50  45  81 CALM      30.25R
SEVIERVILLE*   CLOUDY    50  46  87 NE3       30.25R
KNOXVILLE      CLOUDY    51  47  86 N3        30.23R
OAK RIDGE      CLOUDY    52  46  80 CALM      30.25R
CROSSVILLE     CLOUDY    55  54  96 VRB6      30.22R
NASHVILLE      CLOUDY    58  54  86 S9        30.16R
$$

...KEY TO REMARKS...
VSB - VISIBILITY IN MILES
WCI - WIND CHILL INDEX
HX  - HEAT INDEX

$$




USA.gov is the U.S. government's official web portal to all federal, state and local government web resources and services.